User: anonymous   Login
Location: ActonStarParty
(42.4766°N, 71.4538°W)
Time: 10:33:50
(UTC-04:00)
Language:

ITAMSAT 1 - Orbit

View from above orbital plane
View from above orbital plane
View from above satellite
View from above satellite

Ground track
Ground track

The orbit data is extracted from the following two-line orbital elements,

1 22826U 93061D   15141.03533744  .00000149  00000-0  74591-4 0  9994
2 22826 098.7009 091.3113 0009485 027.0565 333.1110 14.30195336129205
Epoch (UTC): 21 May 2015 00:50:53
Eccentricity: 0.0009485
inclination: 98.7009°
perigee height: 784 km
apogee height: 798 km
right ascension of ascending node: 91.3113°
argument of perigee: 27.0565°
revolutions per day: 14.30195336
mean anomaly at epoch: 333.1110°
orbit number at epoch: 12920

The dashed part of the orbit path shows where the satellite is in the earth's shadow,  

DLR